TimeEST,TemperatureF,Dew PointF,Humidity,Sea Level PressureIn,VisibilityMPH,Wind Direction,Wind SpeedMPH,Gust SpeedMPH,PrecipitationIn,Events,Conditions,WindDirDegrees,DateUTC
12:37 AM,42.8,39.2,87,29.53,10.0,Calm,Calm,-,N/A,,Overcast,0,2012-12-11 05:37:00
12:51 AM,42.1,39.9,92,29.53,10.0,Calm,Calm,-,N/A,,Overcast,0,2012-12-11 05:51:00
1:51 AM,44.1,39.9,85,29.57,10.0,WNW,6.9,-,N/A,,Overcast,300,2012-12-11 06:51:00
2:51 AM,44.1,39.0,82,29.58,10.0,Variable,3.5,-,N/A,,Overcast,0,2012-12-11 07:51:00
3:51 AM,43.0,39.0,86,29.61,10.0,West,4.6,-,0.01,Rain,Light Rain,270,2012-12-11 08:51:00
4:51 AM,41.0,37.9,89,29.65,10.0,Calm,Calm,-,0.00,,Overcast,0,2012-12-11 09:51:00
5:51 AM,41.0,37.9,89,29.67,10.0,West,3.5,-,0.00,Rain,Light Rain,260,2012-12-11 10:51:00
6:51 AM,41.0,37.0,86,29.69,10.0,Calm,Calm,-,N/A,,Overcast,0,2012-12-11 11:51:00
7:51 AM,41.0,36.0,82,29.71,10.0,West,5.8,-,N/A,,Overcast,280,2012-12-11 12:51:00
8:51 AM,41.0,35.1,79,29.75,10.0,Variable,4.6,-,N/A,,Overcast,0,2012-12-11 13:51:00
9:51 AM,43.0,35.1,74,29.79,10.0,Variable,5.8,-,N/A,,Overcast,0,2012-12-11 14:51:00
10:51 AM,43.0,32.0,65,29.81,10.0,WNW,12.7,20.7,N/A,,Mostly Cloudy,300,2012-12-11 15:51:00
11:51 AM,42.1,28.9,60,29.82,10.0,WNW,12.7,20.7,N/A,,Mostly Cloudy,300,2012-12-11 16:51:00
12:51 PM,41.0,27.0,57,29.83,10.0,NW,12.7,24.2,N/A,,Mostly Cloudy,310,2012-12-11 17:51:00
1:51 PM,41.0,27.0,57,29.86,10.0,WNW,13.8,20.7,N/A,,Mostly Cloudy,300,2012-12-11 18:51:00
2:51 PM,39.0,27.0,62,29.89,10.0,NW,9.2,-,N/A,,Mostly Cloudy,310,2012-12-11 19:51:00
3:51 PM,37.9,26.1,62,29.93,10.0,NW,5.8,-,N/A,,Overcast,310,2012-12-11 20:51:00
4:51 PM,35.1,24.1,64,29.96,10.0,Variable,4.6,-,N/A,,Clear,0,2012-12-11 21:51:00
5:51 PM,34.0,23.0,64,29.98,10.0,WNW,8.1,-,N/A,,Clear,290,2012-12-11 22:51:00
6:51 PM,33.1,21.9,64,30.01,10.0,WNW,6.9,-,N/A,,Clear,300,2012-12-11 23:51:00
7:51 PM,32.0,21.0,64,30.02,10.0,NW,6.9,-,N/A,,Clear,310,2012-12-12 00:51:00
8:51 PM,33.1,21.0,61,30.05,10.0,Variable,3.5,-,N/A,,Clear,0,2012-12-12 01:51:00
9:51 PM,32.0,21.0,64,30.07,10.0,Calm,Calm,-,N/A,,Clear,0,2012-12-12 02:51:00
10:51 PM,30.9,19.9,64,30.09,10.0,Calm,Calm,-,N/A,,Clear,0,2012-12-12 03:51:00
11:51 PM,30.9,19.9,64,30.10,10.0,Calm,Calm,-,N/A,,Clear,0,2012-12-12 04:51:00